Time,TemperatureF,DewpointF,PressureIn,WindDirection,WindDirectionDegrees,WindSpeedMPH,WindSpeedGustMPH,Humidity,HourlyPrecipIn,Conditions,Clouds,dailyrainin,SoftwareType,DateUTC
2013-07-17 00:01:00,78.5,68.7,30.30,NNE,23,0.0,0.0,72,0.00,,,0.00,WUHU216HW,2013-07-17 04:01:00,
2013-07-17 00:06:00,78.5,69.0,30.30,NNE,23,0.0,0.0,73,0.00,,,0.00,WUHU216HW,2013-07-17 04:06:00,
2013-07-17 00:11:00,78.5,69.0,30.30,NNE,23,0.0,0.0,73,0.00,,,0.00,WUHU216HW,2013-07-17 04:11:00,
2013-07-17 00:16:00,78.5,69.5,30.30,NNE,23,0.0,0.0,74,0.00,,,0.00,WUHU216HW,2013-07-17 04:16:00,
2013-07-17 00:21:00,78.3,69.3,30.30,NNE,23,0.0,0.0,74,0.00,,,0.00,WUHU216HW,2013-07-17 04:21:00,
2013-07-17 00:26:00,78.1,69.5,30.30,NNE,23,0.0,0.0,75,0.00,,,0.00,WUHU216HW,2013-07-17 04:26:00,
2013-07-17 00:31:00,77.8,69.2,30.31,NNE,23,0.0,0.0,75,0.00,,,0.00,WUHU216HW,2013-07-17 04:31:00,
2013-07-17 00:36:00,77.8,69.2,30.30,NNE,23,0.0,0.0,75,0.00,,,0.00,WUHU216HW,2013-07-17 04:36:00,
2013-07-17 00:41:00,77.6,69.0,30.30,NNE,23,0.0,0.0,75,0.00,,,0.00,WUHU216HW,2013-07-17 04:41:00,
2013-07-17 00:46:00,77.4,68.9,30.30,NNE,23,0.0,0.0,75,0.00,,,0.00,WUHU216HW,2013-07-17 04:46:00,
2013-07-17 00:51:00,77.4,68.9,30.30,NNE,23,0.0,0.0,75,0.00,,,0.00,WUHU216HW,2013-07-17 04:51:00,
2013-07-17 00:55:00,77.4,68.9,30.30,NNE,23,0.0,0.0,75,0.00,,,0.00,WUHU216HW,2013-07-17 04:55:00,
2013-07-17 00:59:00,77.2,69.0,30.31,NNE,23,0.0,0.0,76,0.00,,,0.00,WUHU216HW,2013-07-17 04:59:00,
2013-07-17 01:04:00,76.9,69.1,30.30,NNE,23,0.0,0.0,77,0.00,,,0.00,WUHU216HW,2013-07-17 05:04:00,
2013-07-17 01:09:00,76.7,69.0,30.30,NNE,23,0.0,0.0,77,0.00,,,0.00,WUHU216HW,2013-07-17 05:09:00,
2013-07-17 01:14:00,76.7,69.0,30.30,NNE,23,0.0,0.0,77,0.00,,,0.00,WUHU216HW,2013-07-17 05:14:00,
2013-07-17 01:19:00,76.7,69.3,30.31,NNE,23,0.0,0.0,78,0.00,,,0.00,WUHU216HW,2013-07-17 05:19:00,
2013-07-17 01:24:00,76.5,69.1,30.30,NNE,23,0.0,0.0,78,0.00,,,0.00,WUHU216HW,2013-07-17 05:24:00,
2013-07-17 01:29:00,76.5,69.1,30.30,NNE,23,0.0,0.0,78,0.00,,,0.00,WUHU216HW,2013-07-17 05:29:00,
2013-07-17 01:34:00,76.5,69.1,30.30,NNE,23,0.0,0.0,78,0.00,,,0.00,WUHU216HW,2013-07-17 05:34:00,
2013-07-17 01:39:00,76.5,69.1,30.30,NNE,23,0.0,0.0,78,0.00,,,0.00,WUHU216HW,2013-07-17 05:39:00,
2013-07-17 01:44:00,76.5,69.1,30.31,NNE,23,0.0,0.0,78,0.00,,,0.00,WUHU216HW,2013-07-17 05:44:00,
2013-07-17 01:49:00,76.5,69.1,30.30,NNE,23,0.0,0.0,78,0.00,,,0.00,WUHU216HW,2013-07-17 05:49:00,
2013-07-17 01:54:00,76.5,69.1,30.30,NNE,23,0.0,0.0,78,0.00,,,0.00,WUHU216HW,2013-07-17 05:54:00,
2013-07-17 01:59:00,76.3,68.9,30.30,NNE,23,0.0,0.0,78,0.00,,,0.00,WUHU216HW,2013-07-17 05:59:00,
2013-07-17 02:04:00,76.3,68.9,30.30,NNE,23,0.0,0.0,78,0.00,,,0.00,WUHU216HW,2013-07-17 06:04:00,
2013-07-17 02:09:00,76.3,68.9,30.30,NE,45,0.9,1.1,78,0.00,,,0.00,WUHU216HW,2013-07-17 06:09:00,
2013-07-17 02:14:00,76.3,68.9,30.30,NE,45,0.0,1.1,78,0.00,,,0.00,WUHU216HW,2013-07-17 06:14:00,
2013-07-17 02:18:00,76.3,68.9,30.30,NE,45,0.0,0.9,78,0.00,,,0.00,WUHU216HW,2013-07-17 06:18:00,
2013-07-17 02:24:00,76.1,69.2,30.30,NE,45,0.0,0.0,79,0.00,,,0.00,WUHU216HW,2013-07-17 06:24:00,
2013-07-17 02:29:00,76.0,69.0,30.30,NE,45,0.0,0.0,79,0.00,,,0.00,WUHU216HW,2013-07-17 06:29:00,
2013-07-17 02:34:00,75.8,68.9,30.29,NE,45,0.4,0.4,79,0.00,,,0.00,WUHU216HW,2013-07-17 06:34:00,
2013-07-17 02:38:00,75.8,68.9,30.29,NE,45,0.4,0.4,79,0.00,,,0.00,WUHU216HW,2013-07-17 06:38:00,
2013-07-17 02:44:00,75.8,68.9,30.29,NE,45,0.0,0.7,79,0.00,,,0.00,WUHU216HW,2013-07-17 06:44:00,
2013-07-17 02:48:00,75.8,68.9,30.29,NE,45,0.7,0.7,79,0.00,,,0.00,WUHU216HW,2013-07-17 06:48:00,
2013-07-17 02:53:00,75.8,68.9,30.29,NE,45,0.0,0.7,79,0.00,,,0.00,WUHU216HW,2013-07-17 06:53:00,
2013-07-17 02:59:00,75.6,68.7,30.29,NE,45,0.0,0.4,79,0.00,,,0.00,WUHU216HW,2013-07-17 06:59:00,
2013-07-17 03:04:00,75.6,68.7,30.29,NE,45,0.0,0.0,79,0.00,,,0.00,WUHU216HW,2013-07-17 07:04:00,
2013-07-17 03:08:00,75.6,68.7,30.29,NE,45,0.0,0.0,79,0.00,,,0.00,WUHU216HW,2013-07-17 07:08:00,
2013-07-17 03:14:00,75.6,68.7,30.29,NE,45,0.0,0.0,79,0.00,,,0.00,WUHU216HW,2013-07-17 07:14:00,
2013-07-17 03:19:00,75.2,68.8,30.29,NE,45,0.0,0.0,80,0.00,,,0.00,WUHU216HW,2013-07-17 07:19:00,
2013-07-17 03:24:00,75.2,68.8,30.29,NE,45,0.0,0.0,80,0.00,,,0.00,WUHU216HW,2013-07-17 07:24:00,
2013-07-17 03:29:00,75.1,69.0,30.29,NE,45,0.0,0.0,81,0.00,,,0.00,WUHU216HW,2013-07-17 07:29:00,
2013-07-17 03:33:00,74.9,68.8,30.29,NE,45,0.0,0.0,81,0.00,,,0.00,WUHU216HW,2013-07-17 07:33:00,
2013-07-17 03:38:00,74.9,68.8,30.29,NE,45,0.0,0.0,81,0.00,,,0.00,WUHU216HW,2013-07-17 07:38:00,
2013-07-17 03:43:00,74.9,68.8,30.29,NE,45,0.0,0.0,81,0.00,,,0.00,WUHU216HW,2013-07-17 07:43:00,
2013-07-17 03:48:00,74.9,68.8,30.30,NE,45,0.0,0.0,81,0.00,,,0.00,WUHU216HW,2013-07-17 07:48:00,
2013-07-17 03:53:00,74.9,69.1,30.30,NE,45,0.0,0.0,82,0.00,,,0.00,WUHU216HW,2013-07-17 07:53:00,
2013-07-17 03:58:00,74.7,69.0,30.30,NE,45,0.4,0.7,82,0.00,,,0.00,WUHU216HW,2013-07-17 07:58:00,
2013-07-17 04:03:00,74.7,69.0,30.30,NE,45,0.7,0.7,82,0.00,,,0.00,WUHU216HW,2013-07-17 08:03:00,
2013-07-17 04:08:00,74.7,69.0,30.30,NE,45,0.4,0.9,82,0.00,,,0.00,WUHU216HW,2013-07-17 08:08:00,
2013-07-17 04:13:00,74.9,69.1,30.29,NE,45,0.0,0.9,82,0.00,,,0.00,WUHU216HW,2013-07-17 08:13:00,
2013-07-17 04:18:00,74.9,69.1,30.29,NE,45,0.0,0.7,82,0.00,,,0.00,WUHU216HW,2013-07-17 08:18:00,
2013-07-17 04:23:00,74.9,69.1,30.29,NE,45,0.0,0.7,82,0.00,,,0.00,WUHU216HW,2013-07-17 08:23:00,
2013-07-17 04:28:00,74.9,69.1,30.29,NE,45,0.0,0.7,82,0.00,,,0.00,WUHU216HW,2013-07-17 08:28:00,
2013-07-17 04:33:00,74.9,69.4,30.29,NE,45,0.0,0.0,83,0.00,,,0.00,WUHU216HW,2013-07-17 08:33:00,
2013-07-17 04:38:00,74.7,69.2,30.29,NE,45,0.0,0.0,83,0.00,,,0.00,WUHU216HW,2013-07-17 08:38:00,
2013-07-17 04:43:00,74.7,69.2,30.29,NE,45,0.0,0.0,83,0.00,,,0.00,WUHU216HW,2013-07-17 08:43:00,
2013-07-17 04:48:00,74.7,69.2,30.29,NE,45,0.0,0.0,83,0.00,,,0.00,WUHU216HW,2013-07-17 08:48:00,
2013-07-17 04:53:00,74.7,69.2,30.29,NE,45,0.0,0.0,83,0.00,,,0.00,WUHU216HW,2013-07-17 08:53:00,
2013-07-17 04:58:00,74.9,69.4,30.29,NE,45,0.0,0.0,83,0.00,,,0.00,WUHU216HW,2013-07-17 08:58:00,
2013-07-17 05:03:00,74.9,69.4,30.29,NE,45,0.0,0.0,83,0.00,,,0.00,WUHU216HW,2013-07-17 09:03:00,
2013-07-17 05:08:00,74.7,69.2,30.30,NE,45,0.0,0.0,83,0.00,,,0.00,WUHU216HW,2013-07-17 09:08:00,
2013-07-17 05:13:00,74.5,69.0,30.30,NE,45,0.0,0.0,83,0.00,,,0.00,WUHU216HW,2013-07-17 09:13:00,
2013-07-17 05:18:00,74.3,69.2,30.30,NE,45,0.0,0.0,84,0.00,,,0.00,WUHU216HW,2013-07-17 09:18:00,
2013-07-17 05:23:00,74.2,69.0,30.30,NE,45,0.0,0.0,84,0.00,,,0.00,WUHU216HW,2013-07-17 09:23:00,
2013-07-17 05:28:00,74.2,69.0,30.30,NE,45,0.0,0.0,84,0.00,,,0.00,WUHU216HW,2013-07-17 09:28:00,
2013-07-17 05:33:00,73.8,68.7,30.30,NE,45,0.0,0.0,84,0.00,,,0.00,WUHU216HW,2013-07-17 09:33:00,
2013-07-17 05:39:00,73.6,68.5,30.31,NE,45,0.0,0.0,84,0.00,,,0.00,WUHU216HW,2013-07-17 09:39:00,
2013-07-17 05:43:00,73.4,68.3,30.30,NE,45,0.0,0.0,84,0.00,,,0.00,WUHU216HW,2013-07-17 09:43:00,
2013-07-17 05:49:00,73.3,68.5,30.31,NE,45,0.0,0.0,85,0.00,,,0.00,WUHU216HW,2013-07-17 09:49:00,
2013-07-17 05:54:00,73.1,68.3,30.31,ENE,68,0.9,1.1,85,0.00,,,0.00,WUHU216HW,2013-07-17 09:54:00,
2013-07-17 05:59:00,73.1,68.3,30.31,ENE,68,0.4,1.1,85,0.00,,,0.00,WUHU216HW,2013-07-17 09:59:00,
2013-07-17 06:00:00,73.1,68.3,30.31,ENE,68,0.4,1.1,85,0.00,,,0.00,WUHU216HW,2013-07-17 10:00:00,
2013-07-17 06:05:00,73.3,68.5,30.31,ENE,68,0.0,1.1,85,0.00,,,0.00,WUHU216HW,2013-07-17 10:05:00,
2013-07-17 06:10:00,73.1,68.3,30.31,ENE,68,0.0,0.7,85,0.00,,,0.00,WUHU216HW,2013-07-17 10:10:00,
2013-07-17 06:15:00,73.1,68.0,30.31,ENE,68,0.0,0.0,84,0.00,,,0.00,WUHU216HW,2013-07-17 10:15:00,
2013-07-17 06:20:00,73.1,68.3,30.31,ENE,68,0.0,0.0,85,0.00,,,0.00,WUHU216HW,2013-07-17 10:20:00,
2013-07-17 06:25:00,73.1,68.3,30.31,ENE,68,0.0,0.0,85,0.00,,,0.00,WUHU216HW,2013-07-17 10:25:00,
2013-07-17 06:30:00,73.1,68.3,30.31,ENE,68,0.7,0.9,85,0.00,,,0.00,WUHU216HW,2013-07-17 10:30:00,
2013-07-17 06:35:00,73.3,68.5,30.32,ENE,68,0.7,1.1,85,0.00,,,0.00,WUHU216HW,2013-07-17 10:35:00,
2013-07-17 06:40:00,73.3,68.5,30.32,ENE,68,0.0,1.1,85,0.00,,,0.00,WUHU216HW,2013-07-17 10:40:00,
2013-07-17 06:45:00,73.3,68.5,30.32,ENE,68,0.0,0.9,85,0.00,,,0.00,WUHU216HW,2013-07-17 10:45:00,
2013-07-17 06:50:00,73.4,68.7,30.32,ENE,68,0.0,0.0,85,0.00,,,0.00,WUHU216HW,2013-07-17 10:50:00,
2013-07-17 06:55:00,73.4,68.7,30.32,ENE,68,0.0,0.0,85,0.00,,,0.00,WUHU216HW,2013-07-17 10:55:00,
2013-07-17 07:00:00,73.4,68.7,30.32,ENE,68,0.0,0.0,85,0.00,,,0.00,WUHU216HW,2013-07-17 11:00:00,
2013-07-17 07:05:00,73.3,68.5,30.32,ENE,68,0.0,0.0,85,0.00,,,0.00,WUHU216HW,2013-07-17 11:05:00,
2013-07-17 07:10:00,73.1,68.3,30.32,ENE,68,0.0,0.0,85,0.00,,,0.00,WUHU216HW,2013-07-17 11:10:00,
2013-07-17 07:15:00,72.9,68.1,30.32,ENE,68,0.0,0.0,85,0.00,,,0.00,WUHU216HW,2013-07-17 11:15:00,
2013-07-17 07:20:00,73.1,68.3,30.33,ENE,68,0.0,0.0,85,0.00,,,0.00,WUHU216HW,2013-07-17 11:20:00,
2013-07-17 07:25:00,73.1,68.3,30.33,ENE,68,0.0,0.0,85,0.00,,,0.00,WUHU216HW,2013-07-17 11:25:00,
2013-07-17 07:30:00,73.1,68.7,30.33,NE,45,0.0,0.0,86,0.00,,,0.00,WUHU216HW,2013-07-17 11:30:00,
2013-07-17 07:35:00,73.1,68.7,30.32,NNE,23,0.0,0.0,86,0.00,,,0.00,WUHU216HW,2013-07-17 11:35:00,
2013-07-17 07:40:00,73.3,68.9,30.33,NNE,23,0.0,0.0,86,0.00,,,0.00,WUHU216HW,2013-07-17 11:40:00,
2013-07-17 07:45:00,73.3,68.9,30.33,NNE,23,0.0,0.0,86,0.00,,,0.00,WUHU216HW,2013-07-17 11:45:00,
2013-07-17 07:50:00,73.3,68.9,30.33,NNE,23,0.0,0.0,86,0.00,,,0.00,WUHU216HW,2013-07-17 11:50:00,
2013-07-17 07:55:00,73.4,69.0,30.33,NNE,23,0.0,0.0,86,0.00,,,0.00,WUHU216HW,2013-07-17 11:55:00,
2013-07-17 08:00:00,73.4,69.0,30.33,NNE,23,0.0,0.0,86,0.00,,,0.00,WUHU216HW,2013-07-17 12:00:00,
2013-07-17 08:05:00,73.4,69.0,30.33,NNE,23,0.0,0.0,86,0.00,,,0.00,WUHU216HW,2013-07-17 12:05:00,
2013-07-17 08:10:00,73.4,69.4,30.33,NNE,23,0.0,0.0,87,0.00,,,0.00,WUHU216HW,2013-07-17 12:10:00,
2013-07-17 08:15:00,73.6,69.6,30.33,NNE,23,0.0,0.0,87,0.00,,,0.00,WUHU216HW,2013-07-17 12:15:00,
2013-07-17 08:20:00,73.6,69.6,30.33,NNE,23,0.0,0.0,87,0.00,,,0.00,WUHU216HW,2013-07-17 12:20:00,
2013-07-17 08:25:00,73.8,69.8,30.33,NNE,23,0.0,0.0,87,0.00,,,0.00,WUHU216HW,2013-07-17 12:25:00,
2013-07-17 08:30:00,74.0,69.9,30.33,NNE,23,0.0,0.0,87,0.00,,,0.00,WUHU216HW,2013-07-17 12:30:00,
2013-07-17 08:35:00,74.2,70.1,30.34,NNE,23,0.0,0.0,87,0.00,,,0.00,WUHU216HW,2013-07-17 12:35:00,
2013-07-17 08:39:00,74.5,70.7,30.34,NNE,23,0.0,0.0,88,0.00,,,0.00,WUHU216HW,2013-07-17 12:39:00,
2013-07-17 08:44:00,74.5,70.7,30.34,NNE,23,0.0,0.0,88,0.00,,,0.00,WUHU216HW,2013-07-17 12:44:00,
2013-07-17 08:49:00,74.9,71.1,30.34,NNE,23,0.0,0.0,88,0.00,,,0.00,WUHU216HW,2013-07-17 12:49:00,
2013-07-17 08:55:00,75.1,71.3,30.34,NNE,23,0.0,0.0,88,0.00,,,0.00,WUHU216HW,2013-07-17 12:55:00,
2013-07-17 09:00:00,75.2,71.5,30.34,NNE,23,0.0,0.0,88,0.00,,,0.00,WUHU216HW,2013-07-17 13:00:00,
2013-07-17 09:05:00,75.4,71.6,30.34,NNE,23,0.0,0.0,88,0.00,,,0.00,WUHU216HW,2013-07-17 13:05:00,
2013-07-17 09:10:00,75.6,71.8,30.34,NNE,23,0.0,0.0,88,0.00,,,0.00,WUHU216HW,2013-07-17 13:10:00,
2013-07-17 09:15:00,76.0,72.2,30.34,NNE,23,0.0,0.0,88,0.00,,,0.00,WUHU216HW,2013-07-17 13:15:00,
2013-07-17 09:20:00,76.1,72.0,30.34,NNE,23,0.0,0.0,87,0.00,,,0.00,WUHU216HW,2013-07-17 13:20:00,
2013-07-17 09:25:00,76.5,72.4,30.34,NW,315,0.0,0.0,87,0.00,,,0.00,WUHU216HW,2013-07-17 13:25:00,
2013-07-17 09:30:00,76.7,72.5,30.34,NW,315,0.0,0.0,87,0.00,,,0.00,WUHU216HW,2013-07-17 13:30:00,
2013-07-17 09:35:00,77.0,72.5,30.34,NW,315,0.0,0.0,86,0.00,,,0.00,WUHU216HW,2013-07-17 13:35:00,
2013-07-17 09:40:00,77.0,72.5,30.33,NW,315,0.0,0.4,86,0.00,,,0.00,WUHU216HW,2013-07-17 13:40:00,
2013-07-17 09:45:00,77.2,72.7,30.33,NW,315,0.0,0.4,86,0.00,,,0.00,WUHU216HW,2013-07-17 13:45:00,
2013-07-17 09:50:00,77.4,72.9,30.33,NW,315,0.0,0.0,86,0.00,,,0.00,WUHU216HW,2013-07-17 13:50:00,
2013-07-17 09:55:00,77.8,72.9,30.33,North,0,0.9,1.1,85,0.00,,,0.00,WUHU216HW,2013-07-17 13:55:00,
2013-07-17 10:00:00,78.1,72.9,30.33,NNW,338,0.0,1.1,84,0.00,,,0.00,WUHU216HW,2013-07-17 14:00:00,
2013-07-17 10:05:00,78.7,73.4,30.33,WSW,248,0.0,1.1,84,0.00,,,0.00,WUHU216HW,2013-07-17 14:05:00,
2013-07-17 10:10:00,78.8,73.3,30.33,NW,315,0.0,1.1,83,0.00,,,0.00,WUHU216HW,2013-07-17 14:10:00,
2013-07-17 10:15:00,79.2,73.6,30.33,NW,315,0.0,0.9,83,0.00,,,0.00,WUHU216HW,2013-07-17 14:15:00,
2013-07-17 10:20:00,79.4,73.5,30.33,NNW,338,0.0,0.4,82,0.00,,,0.00,WUHU216HW,2013-07-17 14:20:00,
2013-07-17 10:25:00,79.6,73.3,30.33,SE,135,1.1,1.3,81,0.00,,,0.00,WUHU216HW,2013-07-17 14:25:00,
2013-07-17 10:30:00,79.9,73.6,30.33,SE,135,1.3,2.5,81,0.00,,,0.00,WUHU216HW,2013-07-17 14:30:00,
2013-07-17 10:35:00,80.1,73.8,30.33,NNE,23,1.8,2.5,81,0.00,,,0.00,WUHU216HW,2013-07-17 14:35:00,
2013-07-17 10:40:00,80.3,74.0,30.33,SSE,158,0.0,1.8,81,0.00,,,0.00,WUHU216HW,2013-07-17 14:40:00,
2013-07-17 10:45:00,80.3,74.0,30.33,SE,135,0.4,1.3,81,0.00,,,0.00,WUHU216HW,2013-07-17 14:45:00,
2013-07-17 10:50:00,80.3,74.0,30.33,SE,135,0.9,1.8,81,0.00,,,0.00,WUHU216HW,2013-07-17 14:50:00,
2013-07-17 10:55:00,80.6,74.4,30.33,SE,135,2.5,2.5,81,0.00,,,0.00,WUHU216HW,2013-07-17 14:55:00,
2013-07-17 11:00:00,80.8,74.5,30.33,WSW,248,0.2,2.5,81,0.00,,,0.00,WUHU216HW,2013-07-17 15:00:00,
2013-07-17 11:05:00,81.2,74.9,30.32,NNW,338,0.2,2.5,81,0.00,,,0.00,WUHU216HW,2013-07-17 15:05:00,
2013-07-17 11:10:00,81.4,74.7,30.32,SW,225,0.4,2.5,80,0.00,,,0.00,WUHU216HW,2013-07-17 15:10:00,
2013-07-17 11:15:00,81.5,74.9,30.33,SW,225,0.0,1.3,80,0.00,,,0.00,WUHU216HW,2013-07-17 15:15:00,
2013-07-17 11:20:00,81.5,74.9,30.33,NNW,338,0.0,0.9,80,0.00,,,0.00,WUHU216HW,2013-07-17 15:20:00,
2013-07-17 11:25:00,81.7,74.6,30.32,WNW,293,0.9,1.6,79,0.00,,,0.00,WUHU216HW,2013-07-17 15:25:00,
2013-07-17 11:30:00,81.9,74.8,30.33,NW,315,0.9,2.2,79,0.00,,,0.00,WUHU216HW,2013-07-17 15:30:00,
2013-07-17 11:35:00,82.1,74.2,30.33,WNW,293,2.0,2.5,77,0.00,,,0.00,WUHU216HW,2013-07-17 15:35:00,
2013-07-17 11:40:00,82.3,74.0,30.33,NNW,338,2.0,2.5,76,0.00,,,0.00,WUHU216HW,2013-07-17 15:40:00,
2013-07-17 11:45:00,82.4,74.2,30.32,NW,315,0.0,2.9,76,0.00,,,0.00,WUHU216HW,2013-07-17 15:45:00,
2013-07-17 11:50:00,82.6,74.3,30.33,NW,315,0.0,2.9,76,0.00,,,0.00,WUHU216HW,2013-07-17 15:50:00,
2013-07-17 11:55:00,82.4,74.2,30.32,WNW,293,0.0,2.5,76,0.00,,,0.00,WUHU216HW,2013-07-17 15:55:00,
2013-07-17 12:00:00,82.4,74.2,30.32,WNW,293,1.6,2.5,76,0.00,,,0.00,WUHU216HW,2013-07-17 16:00:00,
2013-07-17 12:05:00,82.6,74.3,30.32,NW,315,0.4,1.8,76,0.00,,,0.00,WUHU216HW,2013-07-17 16:05:00,
2013-07-17 12:10:00,83.0,74.3,30.32,North,0,0.2,2.7,75,0.00,,,0.00,WUHU216HW,2013-07-17 16:10:00,
2013-07-17 12:15:00,83.2,74.4,30.32,SSE,158,0.9,2.7,75,0.00,,,0.00,WUHU216HW,2013-07-17 16:15:00,
2013-07-17 12:20:00,83.3,75.0,30.32,West,270,0.0,1.8,76,0.00,,,0.00,WUHU216HW,2013-07-17 16:20:00,
2013-07-17 12:25:00,83.3,75.0,30.31,WNW,293,1.8,2.0,76,0.00,,,0.00,WUHU216HW,2013-07-17 16:25:00,
2013-07-17 12:30:00,83.2,74.4,30.31,West,270,0.0,2.0,75,0.00,,,0.00,WUHU216HW,2013-07-17 16:30:00,
2013-07-17 12:35:00,83.2,74.8,30.31,West,270,0.0,0.9,76,0.00,,,0.00,WUHU216HW,2013-07-17 16:35:00,
2013-07-17 12:40:00,83.0,74.3,30.31,NNW,338,0.0,1.3,75,0.00,,,0.00,WUHU216HW,2013-07-17 16:40:00,
2013-07-17 12:45:00,83.0,74.3,30.31,WNW,293,0.4,1.3,75,0.00,,,0.00,WUHU216HW,2013-07-17 16:45:00,
2013-07-17 12:50:00,83.0,74.3,30.31,NNW,338,0.0,1.1,75,0.00,,,0.00,WUHU216HW,2013-07-17 16:50:00,
2013-07-17 12:55:00,83.0,74.3,30.31,NNW,338,0.4,1.1,75,0.00,,,0.00,WUHU216HW,2013-07-17 16:55:00,
2013-07-17 13:00:00,83.3,74.2,30.31,West,270,0.0,2.7,74,0.00,,,0.00,WUHU216HW,2013-07-17 17:00:00,
2013-07-17 13:05:00,83.7,74.9,30.31,NNW,338,1.1,2.7,75,0.00,,,0.00,WUHU216HW,2013-07-17 17:05:00,
2013-07-17 13:10:00,83.9,74.3,30.31,NW,315,0.4,1.8,73,0.00,,,0.00,WUHU216HW,2013-07-17 17:10:00,
2013-07-17 13:15:00,84.2,74.3,30.31,WNW,293,2.5,2.5,72,0.00,,,0.00,WUHU216HW,2013-07-17 17:15:00,
2013-07-17 13:20:00,84.4,74.4,30.31,NNW,338,1.8,3.4,72,0.00,,,0.00,WUHU216HW,2013-07-17 17:20:00,
2013-07-17 13:25:00,84.6,74.2,30.30,WNW,293,2.5,3.6,71,0.00,,,0.00,WUHU216HW,2013-07-17 17:25:00,
2013-07-17 13:30:00,85.0,74.5,30.30,WSW,248,0.4,3.6,71,0.00,,,0.00,WUHU216HW,2013-07-17 17:30:00,
2013-07-17 13:35:00,85.0,74.5,30.30,NW,315,0.4,2.0,71,0.00,,,0.00,WUHU216HW,2013-07-17 17:35:00,
2013-07-17 13:40:00,85.1,74.3,30.30,NW,315,1.6,2.7,70,0.00,,,0.00,WUHU216HW,2013-07-17 17:40:00,
2013-07-17 13:45:00,85.1,74.3,30.30,NNE,23,1.8,2.7,70,0.00,,,0.00,WUHU216HW,2013-07-17 17:45:00,
2013-07-17 13:50:00,85.3,74.5,30.29,SE,135,0.7,1.8,70,0.00,,,0.00,WUHU216HW,2013-07-17 17:50:00,
2013-07-17 13:55:00,85.3,74.9,30.29,West,270,0.4,2.5,71,0.00,,,0.00,WUHU216HW,2013-07-17 17:55:00,
2013-07-17 14:00:00,85.5,74.7,30.29,WNW,293,2.5,2.5,70,0.00,,,0.00,WUHU216HW,2013-07-17 18:00:00,
2013-07-17 14:05:00,85.5,74.3,30.29,WNW,293,1.6,2.5,69,0.00,,,0.00,WUHU216HW,2013-07-17 18:05:00,
2013-07-17 14:10:00,85.5,74.3,30.28,NW,315,0.7,2.5,69,0.00,,,0.00,WUHU216HW,2013-07-17 18:10:00,
2013-07-17 14:15:00,85.7,74.9,30.28,NW,315,0.0,2.5,70,0.00,,,0.00,WUHU216HW,2013-07-17 18:15:00,
2013-07-17 14:20:00,85.9,75.1,30.27,NW,315,0.4,2.0,70,0.00,,,0.00,WUHU216HW,2013-07-17 18:20:00,
2013-07-17 14:25:00,85.9,74.6,30.27,NW,315,0.4,2.0,69,0.00,,,0.00,WUHU216HW,2013-07-17 18:25:00,
2013-07-17 14:30:00,85.9,74.2,30.27,West,270,1.3,2.0,68,0.00,,,0.00,WUHU216HW,2013-07-17 18:30:00,
2013-07-17 14:35:00,85.7,74.4,30.27,SE,135,0.4,1.8,69,0.00,,,0.00,WUHU216HW,2013-07-17 18:35:00,
2013-07-17 14:40:00,85.5,74.7,30.27,NW,315,0.9,1.3,70,0.00,,,0.00,WUHU216HW,2013-07-17 18:40:00,
2013-07-17 14:45:00,85.3,74.1,30.27,NW,315,0.0,1.1,69,0.00,,,0.00,WUHU216HW,2013-07-17 18:45:00,
2013-07-17 14:50:00,85.3,74.1,30.26,WNW,293,1.6,1.6,69,0.00,,,0.00,WUHU216HW,2013-07-17 18:50:00,
2013-07-17 14:55:00,85.5,73.8,30.26,WNW,293,1.1,1.6,68,0.00,,,0.00,WUHU216HW,2013-07-17 18:55:00,
2013-07-17 15:00:00,85.7,74.0,30.26,NW,315,1.1,2.0,68,0.00,,,0.00,WUHU216HW,2013-07-17 19:00:00,
2013-07-17 15:05:00,85.7,74.0,30.26,NW,315,0.0,2.0,68,0.00,,,0.00,WUHU216HW,2013-07-17 19:05:00,
2013-07-17 15:10:00,85.7,74.0,30.26,NNW,338,0.0,1.1,68,0.00,,,0.00,WUHU216HW,2013-07-17 19:10:00,
2013-07-17 15:15:00,85.7,74.9,30.25,NW,315,0.2,1.1,70,0.00,,,0.00,WUHU216HW,2013-07-17 19:15:00,
2013-07-17 15:20:00,85.3,74.5,30.25,NNW,338,0.0,0.7,70,0.00,,,0.00,WUHU216HW,2013-07-17 19:20:00,
2013-07-17 15:25:00,85.1,74.7,30.25,NNW,338,0.0,0.4,71,0.00,,,0.00,WUHU216HW,2013-07-17 19:25:00,
2013-07-17 15:30:00,85.0,74.5,30.25,NNW,338,0.0,0.4,71,0.00,,,0.00,WUHU216HW,2013-07-17 19:30:00,
2013-07-17 15:35:00,85.0,75.0,30.25,NNW,338,0.0,0.2,72,0.00,,,0.00,WUHU216HW,2013-07-17 19:35:00,
2013-07-17 15:40:00,84.6,74.6,30.25,NNW,338,0.0,0.2,72,0.00,,,0.00,WUHU216HW,2013-07-17 19:40:00,
2013-07-17 15:45:00,84.6,74.6,30.24,NNW,338,0.0,0.2,72,0.00,,,0.00,WUHU216HW,2013-07-17 19:45:00,
2013-07-17 15:50:00,84.4,74.4,30.25,North,0,0.0,0.2,72,0.00,,,0.00,WUHU216HW,2013-07-17 19:50:00,
2013-07-17 15:55:00,84.2,74.6,30.25,North,0,0.4,0.9,73,0.00,,,0.00,WUHU216HW,2013-07-17 19:55:00,
2013-07-17 16:00:00,83.9,73.9,30.24,North,0,0.0,0.9,72,0.00,,,0.00,WUHU216HW,2013-07-17 20:00:00,
2013-07-17 16:05:00,83.9,73.9,30.24,North,0,0.0,0.4,72,0.00,,,0.00,WUHU216HW,2013-07-17 20:05:00,
2013-07-17 16:10:00,83.7,74.1,30.23,North,0,0.0,0.0,73,0.00,,,0.00,WUHU216HW,2013-07-17 20:10:00,
2013-07-17 16:15:00,83.5,74.4,30.23,North,0,0.0,0.2,74,0.00,,,0.00,WUHU216HW,2013-07-17 20:15:00,
2013-07-17 16:20:00,83.5,74.4,30.23,North,0,0.0,0.2,74,0.00,,,0.00,WUHU216HW,2013-07-17 20:20:00,
2013-07-17 16:25:00,83.3,74.2,30.23,North,0,0.0,0.0,74,0.00,,,0.00,WUHU216HW,2013-07-17 20:25:00,
2013-07-17 16:30:00,83.3,74.2,30.23,North,0,0.0,0.0,74,0.00,,,0.00,WUHU216HW,2013-07-17 20:30:00,
2013-07-17 16:35:00,83.3,73.8,30.22,North,0,0.4,0.4,73,0.00,,,0.00,WUHU216HW,2013-07-17 20:35:00,
2013-07-17 16:40:00,83.3,73.8,30.22,North,0,0.2,0.7,73,0.00,,,0.00,WUHU216HW,2013-07-17 20:40:00,
2013-07-17 16:45:00,83.3,73.8,30.22,North,0,0.2,0.7,73,0.00,,,0.00,WUHU216HW,2013-07-17 20:45:00,
2013-07-17 16:50:00,83.5,74.4,30.23,North,0,0.0,0.9,74,0.00,,,0.00,WUHU216HW,2013-07-17 20:50:00,
2013-07-17 16:55:00,83.3,74.6,30.22,North,0,0.0,0.9,75,0.00,,,0.00,WUHU216HW,2013-07-17 20:55:00,
2013-07-17 17:00:00,83.3,74.6,30.22,North,0,0.0,0.0,75,0.00,,,0.00,WUHU216HW,2013-07-17 21:00:00,
2013-07-17 17:05:00,83.3,75.0,30.23,North,0,0.4,0.4,76,0.00,,,0.00,WUHU216HW,2013-07-17 21:05:00,
2013-07-17 17:10:00,83.3,75.0,30.23,North,0,0.7,0.7,76,0.00,,,0.00,WUHU216HW,2013-07-17 21:10:00,
2013-07-17 17:15:00,83.3,75.0,30.23,NW,315,0.9,1.3,76,0.00,,,0.00,WUHU216HW,2013-07-17 21:15:00,
2013-07-17 17:20:00,83.3,75.0,30.23,NW,315,0.0,1.3,76,0.00,,,0.00,WUHU216HW,2013-07-17 21:20:00,
2013-07-17 17:25:00,83.2,74.8,30.23,NW,315,0.0,0.9,76,0.00,,,0.00,WUHU216HW,2013-07-17 21:25:00,
2013-07-17 17:30:00,83.2,74.8,30.23,NW,315,0.0,0.7,76,0.00,,,0.00,WUHU216HW,2013-07-17 21:30:00,
2013-07-17 17:35:00,83.0,74.6,30.23,NW,315,0.0,0.7,76,0.00,,,0.00,WUHU216HW,2013-07-17 21:35:00,
2013-07-17 17:40:00,82.8,74.9,30.23,NW,315,0.0,0.7,77,0.00,,,0.00,WUHU216HW,2013-07-17 21:40:00,
2013-07-17 17:45:00,82.6,74.7,30.23,NW,315,0.0,0.7,77,0.00,,,0.00,WUHU216HW,2013-07-17 21:45:00,
2013-07-17 17:50:00,82.4,75.0,30.24,NW,315,0.0,0.0,78,0.00,,,0.00,WUHU216HW,2013-07-17 21:50:00,
2013-07-17 17:55:00,82.1,75.0,30.24,NNW,338,0.7,1.1,79,0.00,,,0.00,WUHU216HW,2013-07-17 21:55:00,
2013-07-17 18:00:00,81.9,74.8,30.24,NNW,338,1.1,2.5,79,0.00,,,0.00,WUHU216HW,2013-07-17 22:00:00,
2013-07-17 18:05:00,81.7,73.8,30.24,NNW,338,1.6,2.5,77,0.00,,,0.00,WUHU216HW,2013-07-17 22:05:00,
2013-07-17 18:10:00,81.5,73.3,30.25,NW,315,0.4,2.0,76,0.00,,,0.00,WUHU216HW,2013-07-17 22:10:00,
2013-07-17 18:15:00,81.4,73.1,30.25,NW,315,1.1,1.8,76,0.00,,,0.00,WUHU216HW,2013-07-17 22:15:00,
2013-07-17 18:20:00,81.2,72.9,30.25,NW,315,1.8,2.5,76,0.00,,,0.00,WUHU216HW,2013-07-17 22:20:00,
2013-07-17 18:25:00,80.8,72.2,30.25,NW,315,0.7,2.5,75,0.00,,,0.00,WUHU216HW,2013-07-17 22:25:00,
2013-07-17 18:30:00,80.3,71.3,30.24,North,0,1.1,2.7,74,0.00,,,0.00,WUHU216HW,2013-07-17 22:30:00,
2013-07-17 18:35:00,80.1,71.1,30.22,North,0,0.7,2.7,74,0.00,,,0.00,WUHU216HW,2013-07-17 22:35:00,
2013-07-17 18:40:00,79.9,70.9,30.22,NNW,338,1.3,1.6,74,0.00,,,0.00,WUHU216HW,2013-07-17 22:40:00,
2013-07-17 18:45:00,79.6,70.6,30.22,NNW,338,0.0,1.6,74,0.00,,,0.00,WUHU216HW,2013-07-17 22:45:00,
2013-07-17 18:50:00,79.4,70.4,30.22,North,0,0.4,1.6,74,0.00,,,0.00,WUHU216HW,2013-07-17 22:50:00,
2013-07-17 18:55:00,79.0,70.4,30.22,West,270,0.0,1.1,75,0.00,,,0.00,WUHU216HW,2013-07-17 22:55:00,
2013-07-17 19:00:00,78.8,70.2,30.22,NE,45,0.0,1.1,75,0.00,,,0.00,WUHU216HW,2013-07-17 23:00:00,
2013-07-17 19:05:00,78.5,70.3,30.22,ESE,113,1.1,2.0,76,0.00,,,0.00,WUHU216HW,2013-07-17 23:05:00,
2013-07-17 19:10:00,78.1,69.9,30.23,ESE,113,1.1,2.2,76,0.00,,,0.00,WUHU216HW,2013-07-17 23:10:00,
2013-07-17 19:15:00,77.6,70.1,30.24,NE,45,0.9,2.5,78,0.00,,,0.00,WUHU216HW,2013-07-17 23:15:00,
2013-07-17 19:20:00,77.0,69.7,30.25,ESE,113,1.1,2.5,78,0.00,,,0.00,WUHU216HW,2013-07-17 23:20:00,
2013-07-17 19:25:00,76.5,69.1,30.26,ESE,113,1.1,2.5,78,0.00,,,0.00,WUHU216HW,2013-07-17 23:25:00,
2013-07-17 19:30:00,76.3,69.4,30.28,ESE,113,1.8,2.5,79,0.00,,,0.00,WUHU216HW,2013-07-17 23:30:00,
2013-07-17 19:35:00,76.0,69.4,30.29,ESE,113,0.9,2.5,80,0.00,,,0.00,WUHU216HW,2013-07-17 23:35:00,
2013-07-17 19:40:00,75.4,69.3,30.30,East,90,0.4,2.5,81,0.00,,,0.00,WUHU216HW,2013-07-17 23:40:00,
2013-07-17 19:45:00,75.1,69.0,30.29,ESE,113,0.4,1.8,81,0.00,,,0.00,WUHU216HW,2013-07-17 23:45:00,
2013-07-17 19:50:00,74.5,68.8,30.29,SE,135,1.8,1.8,82,0.01,,,0.01,WUHU216HW,2013-07-17 23:50:00,
2013-07-17 19:55:00,74.2,68.4,30.29,ESE,113,1.1,1.8,82,0.01,,,0.01,WUHU216HW,2013-07-17 23:55:00,
2013-07-17 20:00:00,73.8,68.3,30.28,ESE,113,1.6,1.8,83,0.02,,,0.02,WUHU216HW,2013-07-18 00:00:00,
2013-07-17 20:05:00,73.6,68.5,30.27,ESE,113,1.1,1.8,84,0.02,,,0.02,WUHU216HW,2013-07-18 00:05:00,
2013-07-17 20:10:00,73.3,68.5,30.27,ESE,113,0.7,1.6,85,0.03,,,0.03,WUHU216HW,2013-07-18 00:10:00,
2013-07-17 20:15:00,73.1,68.3,30.26,ESE,113,0.4,1.1,85,0.03,,,0.03,WUHU216HW,2013-07-18 00:15:00,
2013-07-17 20:20:00,72.9,67.8,30.26,ESE,113,0.9,1.1,84,0.04,,,0.04,WUHU216HW,2013-07-18 00:20:00,
2013-07-17 20:25:00,72.5,67.8,30.26,ESE,113,0.4,1.1,85,0.04,,,0.04,WUHU216HW,2013-07-18 00:25:00,
2013-07-17 20:30:00,72.5,67.8,30.26,East,90,0.4,1.1,85,0.05,,,0.05,WUHU216HW,2013-07-18 00:30:00,
2013-07-17 20:35:00,72.5,67.8,30.26,ENE,68,0.0,1.1,85,0.06,,,0.06,WUHU216HW,2013-07-18 00:35:00,
2013-07-17 20:40:00,72.5,67.8,30.26,North,0,0.0,0.7,85,0.07,,,0.07,WUHU216HW,2013-07-18 00:40:00,
2013-07-17 20:45:00,72.4,68.0,30.27,NNW,338,0.9,1.1,86,0.07,,,0.07,WUHU216HW,2013-07-18 00:45:00,
2013-07-17 20:50:00,72.0,67.6,30.27,NW,315,1.6,1.6,86,0.07,,,0.08,WUHU216HW,2013-07-18 00:50:00,
2013-07-17 20:56:00,71.8,67.4,30.28,North,0,0.0,2.0,86,0.07,,,0.08,WUHU216HW,2013-07-18 00:56:00,
2013-07-17 21:00:00,71.6,67.2,30.28,West,270,0.0,2.0,86,0.06,,,0.08,WUHU216HW,2013-07-18 01:00:00,
2013-07-17 21:05:00,71.6,67.2,30.28,West,270,0.0,0.4,86,0.06,,,0.08,WUHU216HW,2013-07-18 01:05:00,
2013-07-17 21:11:00,71.3,67.2,30.27,WNW,293,0.0,0.0,87,0.05,,,0.08,WUHU216HW,2013-07-18 01:11:00,
2013-07-17 21:15:00,71.5,67.4,30.27,NNW,338,0.0,0.0,87,0.05,,,0.08,WUHU216HW,2013-07-18 01:15:00,
2013-07-17 21:20:00,71.5,67.4,30.27,NNW,338,0.0,0.0,87,0.04,,,0.08,WUHU216HW,2013-07-18 01:20:00,
2013-07-17 21:25:00,71.3,67.2,30.28,NNW,338,0.0,0.0,87,0.04,,,0.08,WUHU216HW,2013-07-18 01:25:00,
2013-07-17 21:30:00,71.3,67.2,30.27,NNW,338,0.0,0.0,87,0.03,,,0.08,WUHU216HW,2013-07-18 01:30:00,
2013-07-17 21:35:00,71.1,67.3,30.26,North,0,0.0,0.2,88,0.02,,,0.08,WUHU216HW,2013-07-18 01:35:00,
2013-07-17 21:40:00,71.1,67.3,30.27,North,0,0.2,0.9,88,0.01,,,0.08,WUHU216HW,2013-07-18 01:40:00,
2013-07-17 21:45:00,71.1,67.3,30.27,NNW,338,0.4,0.9,88,0.00,,,0.08,WUHU216HW,2013-07-18 01:45:00,
2013-07-17 21:51:00,71.1,67.3,30.28,NNW,338,0.0,0.4,88,0.00,,,0.08,WUHU216HW,2013-07-18 01:51:00,
2013-07-17 21:55:00,71.1,67.3,30.27,ESE,113,0.0,0.7,88,0.00,,,0.08,WUHU216HW,2013-07-18 01:55:00,
2013-07-17 22:00:00,71.3,67.5,30.27,ESE,113,0.0,0.7,88,0.00,,,0.08,WUHU216HW,2013-07-18 02:00:00,
2013-07-17 22:05:00,71.3,67.5,30.27,ESE,113,0.0,0.2,88,0.00,,,0.08,WUHU216HW,2013-07-18 02:05:00,
2013-07-17 22:10:00,71.3,67.5,30.27,ESE,113,0.0,0.2,88,0.00,,,0.08,WUHU216HW,2013-07-18 02:10:00,
2013-07-17 22:15:00,71.3,67.5,30.27,ESE,113,0.0,1.1,88,0.00,,,0.08,WUHU216HW,2013-07-18 02:15:00,
2013-07-17 22:20:00,71.3,67.5,30.27,North,0,0.0,1.1,88,0.00,,,0.08,WUHU216HW,2013-07-18 02:20:00,
2013-07-17 22:26:00,71.1,67.3,30.27,NNE,23,0.0,0.4,88,0.00,,,0.08,WUHU216HW,2013-07-18 02:26:00,
2013-07-17 22:31:00,71.3,67.5,30.27,ESE,113,0.0,0.4,88,0.00,,,0.08,WUHU216HW,2013-07-18 02:31:00,
2013-07-17 22:36:00,71.3,67.5,30.27,ESE,113,0.0,0.4,88,0.00,,,0.08,WUHU216HW,2013-07-18 02:36:00,
2013-07-17 22:41:00,71.3,67.9,30.27,ESE,113,0.2,0.7,89,0.00,,,0.08,WUHU216HW,2013-07-18 02:41:00,
2013-07-17 22:46:00,71.3,67.9,30.28,ESE,113,0.0,0.7,89,0.00,,,0.08,WUHU216HW,2013-07-18 02:46:00,
2013-07-17 22:51:00,71.3,67.9,30.28,ESE,113,0.0,0.2,89,0.00,,,0.08,WUHU216HW,2013-07-18 02:51:00,
2013-07-17 22:56:00,71.3,67.9,30.28,ESE,113,0.0,0.0,89,0.00,,,0.08,WUHU216HW,2013-07-18 02:56:00,
2013-07-17 23:01:00,71.3,67.9,30.27,ESE,113,0.0,0.2,89,0.00,,,0.08,WUHU216HW,2013-07-18 03:01:00,
2013-07-17 23:06:00,71.3,67.9,30.27,ESE,113,0.0,0.2,89,0.00,,,0.08,WUHU216HW,2013-07-18 03:06:00,
2013-07-17 23:11:00,71.3,67.9,30.27,ENE,68,0.0,0.0,89,0.00,,,0.08,WUHU216HW,2013-07-18 03:11:00,
2013-07-17 23:16:00,71.3,67.5,30.27,ENE,68,0.0,0.0,88,0.00,,,0.08,WUHU216HW,2013-07-18 03:16:00,
2013-07-17 23:21:00,71.1,67.3,30.28,ENE,68,0.0,0.0,88,0.00,,,0.08,WUHU216HW,2013-07-18 03:21:00,
2013-07-17 23:26:00,71.1,67.3,30.27,ENE,68,0.0,0.0,88,0.00,,,0.08,WUHU216HW,2013-07-18 03:26:00,
2013-07-17 23:31:00,71.1,67.3,30.28,ENE,68,0.0,0.0,88,0.00,,,0.08,WUHU216HW,2013-07-18 03:31:00,
2013-07-17 23:36:00,71.1,67.7,30.28,ENE,68,0.0,0.2,89,0.00,,,0.08,WUHU216HW,2013-07-18 03:36:00,
2013-07-17 23:41:00,71.1,67.3,30.28,ENE,68,0.0,0.2,88,0.00,,,0.08,WUHU216HW,2013-07-18 03:41:00,
2013-07-17 23:46:00,70.9,67.5,30.27,ENE,68,0.0,0.0,89,0.00,,,0.08,WUHU216HW,2013-07-18 03:46:00,
2013-07-17 23:51:00,70.9,67.5,30.27,ENE,68,0.0,0.0,89,0.00,,,0.08,WUHU216HW,2013-07-18 03:51:00,
2013-07-17 23:56:00,70.9,67.5,30.28,ENE,68,0.0,0.2,89,0.00,,,0.08,WUHU216HW,2013-07-18 03:56:00,